| time (UTC) | temp C | wind direction | speed KPH | gust KPH | rain 1hr cm | rain 24hr cm | rain mn cm | humidity % | barometer mb |
| 20260508040043 | 2 | 9 | 0.0 | 1.6 | 0.00 | 0.13 | 0.00 | 74 | 1005.9 |
| 20260508034543 | 2 | 9 | 0.0 | 0.0 | 0.00 | 0.43 | 0.13 | 75 | 1005.9 |
| 20260508033042 | 3 | 9 | 0.0 | 0.0 | 0.00 | 0.43 | 0.13 | 78 | 1006.0 |
| 20260508031539 | 3 | 9 | 0.0 | 0.0 | 0.00 | 0.43 | 0.13 | 76 | 1005.7 |
| 20260508030043 | 3 | 9 | 0.0 | 0.0 | 0.00 | 0.43 | 0.13 | 75 | 1005.7 |
| 20260508024539 | 3 | 9 | 0.0 | 0.0 | 0.00 | 0.61 | 0.13 | 73 | 1005.6 |
| 20260508023033 | 4 | 9 | 0.0 | 0.0 | 0.00 | 0.61 | 0.13 | 67 | 1005.7 |
| 20260508021536 | 5 | 9 | 0.0 | 0.0 | 0.00 | 0.61 | 0.13 | 67 | 1005.6 |
| 20260508020028 | 5 | 10 | 0.0 | 0.0 | 0.00 | 0.61 | 0.13 | 63 | 1005.6 |
| 20260508014524 | 6 | 10 | 0.0 | 0.0 | 0.00 | 0.76 | 0.13 | 60 | 1005.8 |
| 20260508013034 | 6 | 9 | 0.0 | 0.0 | 0.00 | 0.76 | 0.13 | 56 | 1005.8 |
| 20260508011522 | 7 | 9 | 0.0 | 1.6 | 0.00 | 0.76 | 0.13 | 56 | 1005.9 |
| 20260508010021 | 7 | 9 | 0.0 | 1.6 | 0.00 | 0.76 | 0.13 | 51 | 1005.7 |
| 20260508004533 | 8 | 355 | 0.0 | 6.4 | 0.00 | 1.63 | 0.13 | 50 | 1005.8 |
| 20260508003022 | 8 | 309 | 0.0 | 0.0 | 0.00 | 1.63 | 0.13 | 49 | 1005.5 |
| 20260508001518 | 8 | 309 | 0.0 | 4.8 | 0.00 | 1.63 | 0.13 | 48 | 1005.4 |
| 20260508000015 | 9 | 331 | 0.0 | 9.7 | 0.00 | 1.63 | 0.13 | 43 | 1005.1 |
| 20260507234515 | 10 | 305 | 1.6 | 6.4 | 0.00 | 1.63 | 0.13 | 40 | 1005.0 |
| 20260507233027 | 10 | 338 | 3.2 | 17.7 | 0.00 | 1.63 | 0.13 | 41 | 1004.9 |
| 20260507231513 | 11 | 309 | 1.6 | 12.9 | 0.00 | 1.63 | 0.13 | 41 | 1004.6 |
| 20260507230013 | 11 | 329 | 3.2 | 9.7 | 0.00 | 1.63 | 0.13 | 40 | 1004.5 |
| 20260507224513 | 11 | 22 | 1.6 | 17.7 | 0.00 | 1.75 | 0.13 | 41 | 1004.2 |
| 20260507223012 | 11 | 15 | 3.2 | 11.3 | 0.00 | 1.75 | 0.13 | 39 | 1004.1 |
| 20260507221517 | 12 | 44 | 1.6 | 14.5 | 0.00 | 1.75 | 0.13 | 40 | 1004.1 |
| 20260507220012 | 12 | 284 | 3.2 | 12.9 | 0.00 | 1.75 | 0.13 | 39 | 1004.0 |
| 20260507214510 | 13 | 292 | 3.2 | 9.7 | 0.00 | 1.91 | 0.13 | 38 | 1003.9 |
| 20260507213010 | 13 | 307 | 4.8 | 12.9 | 0.00 | 1.91 | 0.13 | 39 | 1003.8 |
| 20260507211509 | 13 | 350 | 6.4 | 19.3 | 0.00 | 1.91 | 0.13 | 39 | 1003.5 |
| 20260507210023 | 13 | 355 | 4.8 | 16.1 | 0.00 | 1.91 | 0.13 | 37 | 1003.3 |
| 20260507204507 | 14 | 252 | 3.2 | 17.7 | 0.00 | 1.96 | 0.13 | 39 | 1002.9 |
| 20260507203008 | 14 | 334 | 6.4 | 14.5 | 0.00 | 1.96 | 0.13 | 40 | 1002.6 |
| 20260507201508 | 14 | 288 | 1.6 | 11.3 | 0.00 | 1.96 | 0.13 | 37 | 1002.4 |
| 20260507200006 | 15 | 337 | 3.2 | 12.9 | 0.00 | 1.96 | 0.13 | 39 | 1002.3 |
| 20260507194505 | 15 | 345 | 4.8 | 11.3 | 0.00 | 2.92 | 0.13 | 37 | 1002.3 |
| 20260507193005 | 16 | 290 | 3.2 | 19.3 | 0.00 | 2.92 | 0.13 | 36 | 1002.2 |
| 20260507191503 | 16 | 279 | 3.2 | 27.4 | 0.00 | 2.92 | 0.13 | 35 | 1002.3 |
| 20260507190002 | 15 | 296 | 3.2 | 17.7 | 0.00 | 3.78 | 0.13 | 37 | 1002.1 |
| 20260507184606 | 15 | 225 | 3.2 | 12.9 | 0.00 | 3.78 | 0.13 | 43 | 1002.2 |
| 20260507183057 | 15 | 5 | 3.2 | 9.7 | 0.00 | 3.78 | 0.13 | 47 | 1002.5 |
| 20260507181556 | 15 | 263 | 4.8 | 12.9 | 0.00 | 3.78 | 0.13 | 47 | 1002.7 |
| 20260507174556 | 14 | 318 | 3.2 | 11.3 | 0.00 | 3.89 | 0.13 | 50 | 1002.8 |
| 20260507173054 | 15 | 300 | 1.6 | 9.7 | 0.00 | 3.89 | 0.13 | 51 | 1002.7 |
| 20260507171552 | 14 | 331 | 4.8 | 17.7 | 0.00 | 3.89 | 0.13 | 51 | 1002.8 |
| 20260507170052 | 15 | 302 | 3.2 | 19.3 | 0.00 | 3.89 | 0.13 | 50 | 1003.0 |
| 20260507164555 | 16 | 296 | 4.8 | 16.1 | 0.00 | 3.99 | 0.13 | 45 | 1003.0 |
| 20260507163050 | 16 | 35 | 4.8 | 14.5 | 0.00 | 3.99 | 0.13 | 47 | 1003.1 |
| 20260507161549 | 15 | 219 | 3.2 | 16.1 | 0.00 | 3.99 | 0.13 | 50 | 1003.1 |
| 20260507160046 | 15 | 240 | 4.8 | 14.5 | 0.00 | 3.99 | 0.13 | 45 | 1003.4 |
| 20260507154543 | 15 | 231 | 1.6 | 14.5 | 0.00 | 3.99 | 0.13 | 57 | 1003.4 |
| 20260507153045 | 15 | 255 | 3.2 | 14.5 | 0.00 | 3.99 | 0.13 | 54 | 1003.5 |
| 20260507151541 | 15 | 262 | 3.2 | 9.7 | 0.00 | 3.99 | 0.13 | 58 | 1003.4 |
| 20260507150039 | 14 | 319 | 1.6 | 9.7 | 0.00 | 3.99 | 0.13 | 61 | 1003.6 |
| 20260507144537 | 13 | 82 | 0.0 | 4.8 | 0.00 | 3.99 | 0.13 | 62 | 1003.8 |
| 20260507143038 | 13 | 262 | 1.6 | 8.0 | 0.00 | 3.99 | 0.13 | 54 | 1003.9 |
| 20260507141534 | 13 | 99 | 1.6 | 9.7 | 0.00 | 3.99 | 0.13 | 59 | 1004.0 |
| 20260507140032 | 13 | 5 | 1.6 | 9.7 | 0.00 | 3.99 | 0.13 | 60 | 1004.1 |
| 20260507134531 | 12 | 281 | 3.2 | 8.0 | 0.00 | 3.99 | 0.13 | 63 | 1004.4 |
| 20260507133030 | 12 | 182 | 4.8 | 12.9 | 0.00 | 3.99 | 0.13 | 64 | 1004.2 |
| 20260507131526 | 11 | 281 | 1.6 | 6.4 | 0.00 | 3.99 | 0.13 | 68 | 1004.1 |
| 20260507130036 | 11 | 327 | 1.6 | 6.4 | 0.00 | 3.99 | 0.13 | 72 | 1004.4 |
| 20260507124527 | 11 | 343 | 1.6 | 4.8 | 0.00 | 3.99 | 0.13 | 75 | 1004.6 |
| 20260507123020 | 10 | 350 | 1.6 | 4.8 | 0.00 | 3.99 | 0.13 | 73 | 1004.7 |
| 20260507121516 | 10 | 69 | 0.0 | 3.2 | 0.00 | 3.99 | 0.13 | 81 | 1004.8 |
| 20260507120020 | 9 | 344 | 0.0 | 3.2 | 0.00 | 3.99 | 0.13 | 87 | 1004.9 |
| 20260507114512 | 7 | 340 | 0.0 | 0.0 | 0.00 | 3.99 | 0.13 | 94 | 1005.0 |
| 20260507113011 | 7 | 340 | 0.0 | 0.0 | 0.00 | 3.99 | 0.13 | 94 | 1004.9 |
| 20260507111513 | 7 | 340 | 0.0 | 0.0 | 0.00 | 3.99 | 0.13 | 94 | 1004.9 |
| 20260507110010 | 7 | 340 | 0.0 | 0.0 | 0.00 | 3.99 | 0.13 | 94 | 1005.0 |
| 20260507104510 | 7 | 340 | 0.0 | 0.0 | 0.00 | 3.99 | 0.13 | 94 | 1004.8 |
| 20260507103017 | 6 | 340 | 0.0 | 0.0 | 0.00 | 3.99 | 0.13 | 94 | 1005.0 |
| 20260507101508 | 6 | 340 | 0.0 | 0.0 | 0.00 | 3.99 | 0.13 | 93 | 1004.7 |
| 20260507100007 | 6 | 340 | 0.0 | 0.0 | 0.00 | 3.99 | 0.13 | 93 | 1004.5 |
| 20260507094508 | 6 | 340 | 0.0 | 0.0 | 0.00 | 3.99 | 0.13 | 93 | 1004.6 |
| 20260507093006 | 6 | 340 | 0.0 | 0.0 | 0.00 | 3.99 | 0.13 | 93 | 1004.6 |
| 20260507091505 | 6 | 340 | 0.0 | 0.0 | 0.00 | 3.99 | 0.13 | 93 | 1004.7 |
| 20260507090005 | 6 | 340 | 0.0 | 0.0 | 0.00 | 3.99 | 0.13 | 93 | 1004.5 |
| 20260507084504 | 6 | 340 | 0.0 | 0.0 | 0.00 | 4.01 | 0.13 | 93 | 1003.9 |
| 20260507083002 | 6 | 340 | 0.0 | 0.0 | 0.00 | 4.01 | 0.13 | 92 | 1004.2 |
| 20260507081615 | 7 | 340 | 0.0 | 0.0 | 0.00 | 4.01 | 0.13 | 92 | 1004.7 |
| 20260507080115 | 7 | 340 | 0.0 | 0.0 | 0.00 | 4.01 | 0.13 | 92 | 1004.5 |
| 20260507074557 | 7 | 340 | 0.0 | 0.0 | 0.00 | 4.01 | 0.13 | 91 | 1004.3 |
| 20260507073056 | 7 | 340 | 0.0 | 1.6 | 0.00 | 4.01 | 0.13 | 91 | 1004.2 |
| 20260507071609 | 7 | 340 | 0.0 | 3.2 | 0.00 | 4.01 | 0.13 | 90 | 1004.3 |
| 20260507070055 | 7 | 340 | 0.0 | 9.7 | 0.00 | 4.01 | 0.13 | 89 | 1003.9 |
| 20260507064551 | 7 | 332 | 4.8 | 11.3 | 0.00 | 4.01 | 0.13 | 90 | 1003.8 |
| 20260507063048 | 7 | 355 | 0.0 | 8.0 | 0.00 | 4.01 | 0.13 | 92 | 1004.0 |
| 20260507061546 | 7 | 331 | 0.0 | 4.8 | 0.00 | 4.01 | 0.13 | 92 | 1004.0 |
| 20260507060045 | 7 | 328 | 1.6 | 8.0 | 0.00 | 4.01 | 0.13 | 92 | 1003.7 |
| 20260507054542 | 8 | 132 | 1.6 | 6.4 | 0.03 | 4.01 | 0.13 | 94 | 1003.6 |
| 20260507053109 | 8 | 29 | 0.0 | 1.6 | 0.03 | 4.01 | 0.13 | 94 | 1003.7 |
| 20260507051544 | 8 | 29 | 0.0 | 1.6 | 0.05 | 4.01 | 0.13 | 94 | 1003.8 |
| 20260507050043 | 8 | 29 | 0.0 | 1.6 | 0.13 | 4.01 | 0.13 | 94 | 1003.9 |
| 20260507044539 | 8 | 29 | 0.0 | 4.8 | 0.15 | 3.99 | 0.10 | 93 | 1003.6 |
| 20260507043038 | 8 | 360 | 3.2 | 8.0 | 0.23 | 3.99 | 0.10 | 93 | 1003.8 |
| 20260507041537 | 8 | 337 | 3.2 | 11.3 | 0.36 | 3.96 | 0.08 | 94 | 1003.9 |